Regional Weather Roundup
Issued by NWS Goodland, KS

Home | Current Version | Previous Version | Graphics & Text | Print | Product List | Glossary On
Versions: 1 2 3 4 5 6 7 8 9 10 11 12 13 14 15 16 17 18 19 20 21 22 23 24 25 26 27 28 29 30 31 32 33 34 35 36 37 38 39 40 41 42 43 44 45 46 47 48 49 50
000
ASUS43 KGLD 292259
RWRGLD

GOODLAND FORECAST AREA HOURLY WEATHER ROUNDUP
NATIONAL WEATHER SERVICE GOODLAND KS
500 PM MDT THU SEP 29 2016

...OFFICIAL OBSERVATIONS...

CITY           SKY/WX    TMP DP  RH WIND       PRES   REMARKS
GOODLAND KS    SUNNY     72  42  34 SE15G23   30.29F
HILL CITY KS   SUNNY     70  45  40 SE8       30.32F
IMPERIAL NEB   SUNNY     73  40  30 SE21      30.28F
MCCOOK NEB     SUNNY     71  43  36 SE12      30.30F
AKRON CO       SUNNY     78  39  24 SE26G32   30.25F
BURLINGTON CO  CLOUDY    76  39  26 S17G31    30.29F
LIMON CO       SUNNY     79  30  16 S17G28    30.29S
$$

...UNOFFICIAL OBSERVATIONS...

CITY           SKY/WX    TMP DP  RH WIND       PRES   REMARKS
COLBY KS       SUNNY     73  45  35 SE13      30.32S
LENORA KS        N/A     67  32  27 MISG        N/A
NORTON KS      SUNNY     68  36  30 E9        30.31F
SHARON SPRINGS   N/A     75  45  34 SE13G22     N/A
KIT CARSON CO    N/A     78  45  30 MISG        N/A
$$




USA.gov is the U.S. government's official web portal to all federal, state and local government web resources and services.